sat.trackr.live / text

‹ back to catalog

STARLINK-11468 [DTC]

NORAD 62221 · 2024-231D

PAYLOAD ACTIVE UNKNOWN

§ Identity

Operator
Country
US
Launch date
2024-12-05
Launch site
AFWTR
Launch vehicle
Mass (kg)
RCS (m²)

Purposes: comms

External: N2YO · Heavens-Above · Gunter

§ Orbital elements

Epoch: 2026-09-21T21:27:27.583200Z

Period
91.73 min
Inclination
53.1566°
Eccentricity
0.0002333
Mean motion
15.69874423 rev/d
Perigee alt
357.7 km
Apogee alt
360.8 km
Semi-major
6,737.4 km
B*
1.8141e-3
RAAN
214.3399°
Arg perigee
127.3009°
Mean anomaly
232.8222°
Rev number
10,422

§ Raw data

STARLINK-11468 [DTC]1 62221U 24231D   26264.89406925  .00226842  00000+0  18141-2 0  99982 62221  53.1566 214.3399 0002333 127.3009 232.8222 15.69874423104224

JSON: /api/v1/satellites/62221 · /tle

For live sub-satellite position, see the globe view (requires WebGL).

§ Visibility from observer

Set your observer location to see the next 7 days of passes ≥ 10°. The values pass through the URL so the page stays shareable.

No JS? Fill the form by hand. The geolocation button needs JavaScript.